Terminal Aerodrome Forecast
Issued by NWS Green Bay, WI

Home | Current Version | Previous Version | Graphics & Text | Print | Product List | Glossary On
Versions: 1 2 3 4 5 6 7 8 9 10 11 12 13 14 15 16 17 18 19 20 21 22 23 24 25 26 27 28 29 30 31 32
646
FTUS43 KGRB 212332
TAFGRB
TAF
KGRB 212332Z 2200/2224 17008KT P6SM SCT060
     FM220400 16007KT P6SM BKN050 WS020/26035KT
      TEMPO 2206/2210 2SM TSRA BKN022CB
     FM221000 21008KT 6SM -SHRA BR BKN045 WS017/27030KT
     FM221300 23010G16KT P6SM BKN040
     FM221700 25010G15KT P6SM BKN040 PROB30 2220/2224 1SM TSRA
      BKN022CB=

USA.gov is the U.S. government's official web portal to all federal, state and local government web resources and services.